レモン彗星

C/2018 U1 ( Lemmon )

English version
Home page
Updated on January 23, 2020

---------------------------------------------------------------------

・ プロフィール

発見日 2018年10月27日
発見光度 20.0等
発見者 R. A. Kowalski (Mount Lemmon Survey)

・ 写真集

・ 軌道要素

Epoch 2021 Nov. 2.0 TT = JDT 2459520.5
T 2021 Nov. 3.07005 TT                                  Williams
q   4.9927564            (2000.0)            P               Q
z  -0.0002808      Peri.  180.46625     -0.25317073     -0.30189425
 +/-0.0000036      Node    75.48072     -0.88449046     +0.45709426
e   1.0014018      Incl.  108.29874     -0.39189438     -0.83661503
From 476 observations 2018 Oct. 27-2019 Dec. 3, mean residual 0".4.

・ 星図

・ 光度変化

        m1 = 0.0 + 5 logΔ + 15.0 log r

---------------------------------------------------------------------

軌道要素はM.P.E.C. 2020-A105に掲載されたものです。
星図はステラナビゲータ Ver.10 (アストロアーツ) で作成したものです。
光度グラフはComet for Windowsで作成したものです。

---------------------------------------------------------------------

Copyright(C) Seiichi Yoshida (comet@aerith.net). All rights reserved.